Погода в Семипалатинске

Хотите узнать прогноз погоды в Семипалатинске? Тогда Вам сюда: Погода в Семипалатинске

Поиск расширенной информации на нашем сайте:

Полезная информация:

Новости сайта



02.01.2020
Опубликован Долгосрочный прогноз погоды по городам России и ближнего зарубежья на январь 2020 года.
Карты: Прогноз на январь и февраль 2020 года, Сравнение прогнозируемой аномалии приземной температуры воздуха на январь 2020 года по разным моделям.




Погода в Семипалатинске - сегодня

Время (UTC), дата Ветер
(°,м/с) 
Видим.   Явления Облачность Т
(°С)
Тd
(°С)
f(%) Тe
(°С)
Pmin
(гПа)
dP
(гПа)
Po
(мм)
O2
(г/м3)
Тmin Tmax R s Состояние
почвы
15 27.03.20 тихо ()   н/о    6/0 верхняя 
[Ci fib]
+1.7 -7.3 51 +2  1020.5  -1  747  300    +9.4       
18 27.03.20 тихо ()   н/о    3/0 верхняя 
[Ci fib]
+1.2 -6.7 56 +1  1020.1  -0.4  747  300    +9.4       
21 27.03.20 тихо ()   н/о    3/0 верхняя 
[Ci fib]
-0.5 -7.2 60 -1  1019.9  -0.4  746  302           
00 28.03.20 тихо ()   н/о    9/0 средняя, верхняя 
[Ac trans|Ci fib]
-3.7 -6.6 80 -4  1020.1  -0.1  746  306           
03 28.03.20 тихо ()   10 км  слаб. ливневой снег  10/10 600 м кучево-дожд. 
[Cb calv]
-0.5 -2.9 84 -1  1020.5  0.7  747  302      0.4  равномерный
сухой снег
100% 
06 28.03.20 270 (З) 10 км  слаб. ливневой снег  10/10 600 м кучево-дожд. 
[Cb calv]
+0.9 -0.5 90 1021  0.7  747  300  -3.7    0.4     
09 28.03.20 290 (З) 10 км  {ливн. осадки}  9/6 600 м кучево-дожд., средняя 
[Cb calv|Ac trans]
+3.8 -1.8 67 +3  1020.6  -0.2  747  297           
12 28.03.20 320 (СЗ) 10 км  {ливн. осадки}  8/6 1000 м средняя 
[Sc|Ac trans]
+2.8 -4.9 57 +2  1021.6  0.9  748  299           
15 28.03.20 тихо ()   н/о    ясно 
+1.2 -4.4 66 +1  1023.4  1.6  749  301    +5.4  0.9     
18 28.03.20 тихо ()   н/о    ясно 
-1.4 -5.1 76 -1  1025.3  1.6  750  304    +5.4  0.9     
21 28.03.20 тихо ()   н/о    ясно 
-2.5 -5.8 78 -3  1026.5  1.1  751  306           
00 29.03.20 тихо ()   н/о    4/0 средняя 
[Ac trans]
-3.7 -7 78 -4  1028.8  2.1  753  308           
03 29.03.20 290 (З) 10 км    3/0 средняя 
[Ac trans]
-1.4 -5.1 76 -2  1030.4  1.8  754  306           
06 29.03.20 320 (СЗ) 10 км    4/4 1000 м 
[Cu hum]
+3.4 -7.9 43 +3  1030.7  0.7  755  301  -3.9         
09 29.03.20 230 (ЮЗ) 10 км    6/6 1000 м 
[Cu med, cong]
+5.1 -8.3 37 +5  1030.2  -0.3  754  299           
12 29.03.20 180 (Ю) 10 км    9/4 1000 м средняя, верхняя 
[Sc|Ac trans|Ci fib]
+5.5 -7.5 39 +4  1029.7  -0.5  754  299           
15 29.03.20 тихо ()   н/о    6/0 верхняя 
[Ci fib]
+0.3 -6.5 60 1030.6  0.5  754  304    +7.2       
18 29.03.20 тихо ()   н/о    3/0 верхняя 
[Ci fib]
-3 -6.5 77 -3  1031.5  0.5  755  308    +7.2       
21 29.03.20 тихо ()   н/о    3/0 верхняя 
[Ci fib]
-4.3 -7 81 -4  1031.8  0.2  755  310           
00 30.03.20 тихо ()   н/о    ясно 
-4.9 -7.3 83 -5  1032.5  0.6  755  311           
03 30.03.20 110 (В) 10 км    ясно 
-0.4 -6.7 62 -1  1032.4  0.3  756  306           
06 30.03.20 110 (В) 10 км    ясно 
+5.9 -2.4 55 +6  1031.9  0.1  756  298  -5.1         
09 30.03.20 110 (В) 10 км    ясно 
+7.7 -3.4 45 +8  1030.7  -1  755  296           
12 30.03.20 110 (В) 10 км    ясно 
+6.3 -7.1 38 +6  1029.9  -0.9  754  298           
15 30.03.20 тихо ()   н/о    ясно 
+0 -5.6 66 1030.4  -0.1  754  305    +8.1       
Время (UTC), дата Ветер
(°,м/с) 
Видим.   Явления Облачность Т
(°С)
Тd
(°С)
f(%) Тe
(°С)
Pmin
(гПа)
dP
(гПа)
Po
(мм)
O2
(г/м3)
Тmin Tmax R s Состояние
почвы

Для получения пояснительной информации подведите курсор к названию столбца.

ПОГОДА в Семипалатинске - архив

Всё, что Вы хотите узнать о погоде в Семипалатинске - удобно и подробно!

Выберите нужную дату (начиная с 1 января 2019* года) и нажмите кнопку "Найти".
Будут отображены архивные сводки погоды по пункту Семипалатинск, начиная с указанной даты.


Отображать данные в формате CSV (для использования в таблицах Excel)


Внимание! Наш архив погоды предназначен исключительно для личного некоммерческого использования в познавательных целях. Если Вам необходимы официальные справки о состоянии погоды (для производственных, юридических, коммерческих и т.п. целей), обращайтесь в органы Росгидромета.

*Примечание: данная дата относится к архиву по метеостанциям СССР (Россия, СНГ, Балтия).
Архив по метеостанциям Зарубежной Европы и Азии (кроме Китая) хранится 10 дней, по другим регионам земного шара (Китай, Африка, Америка, Австралия, Океания) - 1 день.

Семипалатинск - район местоположения метеостанции


Название, широта, долгота, высота метеостанции:
Семипалатинск 50.4°ш. 80.3°д. 196 м над ур. моря [Казахстан]

Дополнительная информация

В oтличие oт бoльшинства пoгoдных сайтoв мы публикуем пoдрoбную метеoинфoрмацию в детальнoм прoфессиoнальнoм фoрмате.

Характеристики температуры и влажнoсти вoздуха измеряются на высoте 2 м в тени вдали oт зданий и деревьев.
Скoрoсть ветра измеряется на высoте 10 м (на урoвне рoста челoвека скoрoсть ветра ниже в 1.5-2 раза). Если метеoстанция нахoдится в гoрoде или в лесу, тo скoрoсть ветра занижена на 2-4 м/с пo сравнению с oткрытым местoм. Скoрoсть ветра над акватoриями крупных рек и oзёр, а также на вершинах хoлмoв на 2-5 м/с выше, чем в oбычных услoвиях.
Атмoсфернoе давление в разных тoчках местнoсти мoжет значительнo oтличаться oт давления на метеoстанции, в зависимoсти oт услoвий рельефа (при пoдъёме на 10 м давление пoнижается примернo на 1 мм рт.ст.).